Location: Betz
(49.1556°N, 2.9558°E)
Time: 07:36:49
(UTC+00:00)

Aureole 1 Rocket - Pass Details

Date: 18 September 2019
Orbit: 379 x 1383 km, 73.9° (Epoch: 18 October)

Event Time Altitude Azimuth Distance (km) Brightness Sun altitude
Rises 18:29:09 0° 336° (NNW) 3,622 7.5 -6.3°
Reaches altitude 10° 18:32:00 10° 337° (NNW) 2,500 6.7 -6.7°
Maximum altitude 18:37:37 87° 65° (ENE) 695 3.3 -7.6°
Drops below altitude 10° 18:41:47 10° 157° (SSE) 1,873 5.2 -8.3°
Sets 18:43:41 0° 157° (SSE) 2,650 6.0 -8.6°
